{"data":{"norad_id":68386,"intl_designator":"2026-063G","name":"STARLINK-37198","alt_names":[],"object_type":"PAYLOAD","status":"ACTIVE","operator":null,"country":"US","launch_date":"2026-03-26","launch_site_code":"AFWTR","launch_vehicle":null,"mission":null,"orbit_class":"UNKNOWN","rcs_meters":null,"size_class":null,"mass_kg":null,"dimensions":null,"purposes":["comms"],"wikipedia_slug":null,"has_3d_model":false,"image_url":null,"decayed_at":null,"tle_current":{"epoch":"2026-05-25T02:58:04.151424Z","epoch_age_seconds":57649,"freshness":"FRESH","line1":"1 68386U 26063G   26145.12365916  .00019541  00000+0  60594-3 0  9995","line2":"2 68386  97.2849 287.7585 0000411  18.8096 341.3161 15.33451647  9616","mean_motion":15.33451647,"eccentricity":4.11e-5,"inclination_deg":97.2849,"raan_deg":287.7585,"arg_perigee_deg":18.8096,"mean_anomaly_deg":341.3161,"bstar":0.00060594,"rev_number":961,"period_min":93.905797604846,"perigee_km":465.24212331178,"apogee_km":465.80467219648,"semimajor_km":6843.6603977541,"source":"CELESTRAK","updated_at":"2026-05-25T13:38:21.929357Z"}}}